Regional Weather Roundup
Issued by NWS

Home | Current Version | Previous Version | Text Only | Print | Product List | Glossary Off
Versions: 1 2 3 4 5 6 7 8 9 10 11 12 13 14 15 16 17 18 19 20 21 22 23 24 25 26 27 28 29 30 31 32 33 34 35 36 37 38 39 40 41 42 43 44 45 46 47 48 49 50

000
ASUS45 KCYS 030110
RWRWY

WYOMING REGIONAL WEATHER ROUNDUP
NATIONAL WEATHER SERVICE CHEYENNE WY
700 PM MDT WED SEP 02 2015

NOTE:  "FAIR" INDICATES FEW OR NO CLOUDS BELOW 12,000 FEET
WITH NO SIGNIFICANT WEATHER AND/OR OBSTRUCTIONS TO VISIBILITY.

WYZ001-030200-
YELLOWSTONE NATIONAL PARK

CITY           SKY/WX    TMP DP  RH WIND       PRES   REMARKS
LK YELLOWSTONE   N/A     67  36  31 VRB3      30.11S
W YELLOWSTONE  NOT AVBL

$$
WYZ002>013-054>058-071-098>099-030200-
NORTHERN WYOMING

CITY           SKY/WX    TMP DP  RH WIND       PRES   REMARKS
JACKSON        FAIR      73  36  25 S8        30.00R
CODY           FAIR      82  30  15 SW7       29.83R
GREYBULL       FAIR      92  27   9 S9        29.72R
WORLAND        FAIR      89  33  13 SW10      29.76F
SHERIDAN       FAIR      88  32  13 SW12      29.75S
BUFFALO        FAIR      87  31  13 S7        29.86S
GILLETTE       FAIR      87  34  15 S15       29.82R
HULETT         FAIR      88  34  14 S7        29.82S
NEWCASTLE      FAIR      90  30  12 S6        29.85S

$$
WYZ014>020-022>026-101>103-030200-
CENTRAL WYOMING

CITY           SKY/WX    TMP DP  RH WIND       PRES   REMARKS
BIG PINEY      FAIR      75  36  24 W16       30.09R
PINEDALE       FAIR      73  34  23 SW14G21   30.09R
DUBOIS         FAIR      73  27  17 W12       30.04R
LANDER         FAIR      82  31  15 SW10      29.91R
RIVERTON       FAIR      85  31  14 SW17      29.90S
CASPER         FAIR      84  34  16 SW14      29.94S
DOUGLAS        FAIR      86  32  14 W8        29.93S

$$
WYZ021-027>030-104>119-030200-
SOUTHERN WYOMING

CITY           SKY/WX    TMP DP  RH WIND       PRES   REMARKS
EVANSTON       FAIR      74  31  20 SW21      30.10S
KEMMERER       FAIR      73  32  21 SW14G22   30.12S
FORT BRIDGER   CLEAR     79  30  17 W18G29    30.12S
ROCK SPRINGS   FAIR      74  38  27 SW17      30.08R
DIXON          FAIR      77  40  26 SW13G18   30.13S
RAWLINS        FAIR      78  33  19 SW16G24   30.10R
SARATOGA       FAIR      75  36  23 SW12      30.15R
LARAMIE        FAIR      74  40  29 SW15      30.15S
CHEYENNE       FAIR      81  38  21 SW9       30.06S
TORRINGTON     FAIR      86  45  23 SE8       29.88R
PINE BLUFFS    FAIR      81  37  21 SE3       29.99R

$$



USA.gov is the U.S. government's official web portal to all federal, state and local government web resources and services.